Regional Weather Roundup
Issued by NWS Wakefield, VA

Home | Current Version | Previous Version | Graphics & Text | Print | Product List | Glossary On
Versions: 1 2 3 4 5 6 7 8 9 10 11 12 13 14 15 16 17 18 19 20 21 22 23 24 25 26 27 28 29 30 31 32 33 34 35 36 37 38 39 40 41 42 43 44 45 46 47 48 49 50
754
ASUS41 KAKQ 060014
RWRAKQ

REGIONAL WEATHER ROUNDUP
NATIONAL WEATHER SERVICE WAKEFIELD VA
700 PM EST FRI FEB 05 2016

Note: "fair" indicates few or no clouds below 12,000 feet with no
significant weather and/or obstructions to visibility. * = Denotes
station may not report precipitation (e.g., rain,snow,etc.),
thunder or fog.

VAZ042-051-052>054-056-060100-
NORTHERN VIRGINIA

CITY           SKY/WX    TMP DP  RH WIND       PRES   REMARKS
WASH NATIONAL  FAIR      38  18  44 NW10      30.38R
DULLES         FAIR      36  16  44 N5        30.37R
FORT BELVOIR   FAIR      37  16  42 NW9       30.37R
QUANTICO       FAIR      38  19  46 NW5       30.39R
FREDERICKSBRG* FAIR      37  18  47 N3        30.37R
STAFFORD*      FAIR      34  16  47 NE3       30.42R
WARRENTON      FAIR      32  22  67 CALM      30.36S
CULPEPER*      FAIR      32  16  52 CALM      30.37S
MANASSAS*      CLEAR     34  19  55 N3        30.37R
LEESBURG*      FAIR      36  21  55 NE3       30.38R
WINCHESTER     FAIR      32  19  59 CALM      30.36R
FRONT ROYAL*   FAIR      34  16  47 NW3       30.35R
LURAY*         FAIR      34  14  44 NW6       30.36R
$$

VAZ048-049-060>072-079>083-060100-
CENTRAL AND SOUTH CENTRAL VIRGINIA

CITY           SKY/WX    TMP DP  RH WIND       PRES   REMARKS
RICHMOND       FAIR      37  19  48 NW7       30.36R
CHESTERFIELD*  FAIR      37  12  35 N6        30.37R
PETERSBURG*    FAIR      33  23  68 CALM      30.37R
HANOVER        FAIR      34  21  59 CALM      30.38R
TAPPAHANNOCK*  FAIR      36  20  51 CALM      30.37R
QUINTON*       FAIR      37  20  49 CALM      30.36R
CHARLOTTSVILLE FAIR      38  11  32 NW3       30.36R
GORDONSVILLE*  FAIR      37  14  38 CALM      30.36R
ORANGE*        FAIR      34  19  55 CALM      30.38S
LOUISA*        FAIR      34  16  47 N3        30.35S
BUMPASS*       FAIR      33  18  53 CALM      30.36R
FARMVILLE*     FAIR      38  12  35 CALM      30.35R
CREWE*         FAIR      34  20  57 CALM      30.36R
FORT PICKETT*  FAIR      36  18  48 NW3       30.36R
CHASE CITY*    FAIR      34  21  60 CALM      30.36R
CLARKSVILLE*   FAIR      34  25  69 CALM      30.35S
SOUTH HILL*    FAIR      32  26  78 CALM      30.42R
LAWRENCEVILLE* FAIR      34  28  76 CALM      30.36R
EMPORIA*       FAIR      32  28  86 CALM      30.38R
$$

VAZ088>098-060100-
SOUTHEAST VIRGINIA

CITY           SKY/WX    TMP DP  RH WIND       PRES   REMARKS
NORFOLK        FAIR      42  23  46 N5        30.35R
VIRGINIA BEACH FAIR      41  27  57 N6        30.35R
NORFOLK NAVAL  FAIR      41  25  53 N10       30.37R
WEST POINT*    FAIR      38  21  51 CALM      30.38R
SALUDA*        FAIR      39  23  52 NW8       30.35R
NEWPORT NEWS   FAIR      39  24  55 N3        30.35R
LANGLEY AFB    FAIR      39  24  55 N3        30.34R
FORT EUSTIS    FAIR      41  19  40 N8        30.34R
WILLIAMSBURG*  FAIR      39  27  60 N6        30.36R
HR EXEC AP*    FAIR      34  27  75 CALM      30.38R
FRANKLIN*      FAIR      35  28  73 CALM      30.37R
US460-WAKEFLD  FAIR      34  28  79 CALM      30.36R
$$

VAZ020-022-025-037-045-060100-
WEST CENTRAL AND SOUTHWEST VIRGINIA

CITY           SKY/WX    TMP DP  RH WIND       PRES   REMARKS
STAUNTON*      FAIR      35  19  52 NW3       30.36R
WAYNESBORO*    FAIR      32  10  40 NW6       30.33S
HOT SPRINGS VA FAIR      26   9  48 NW7       30.22F
LYNCHBURG      FAIR      36  12  37 NW3       30.36R
DANVILLE       FAIR      35  18  49 CALM      30.36R
SOUTH BOSTON*  FAIR      36  20  53 CALM      30.36R
MARTINSVILLE   FAIR      32  14  48 NW3       30.39R
ROANOKE        FAIR      35  13  40 NW7       30.38R
BLACKSBURG     FAIR      32  16  52 NW6       30.36R
DUBLIN*        FAIR      34  12  41 CALM      30.36R
MARION*        FAIR      33  10  38 NW3       30.35S
HILLSVILLE*    FAIR      31  12  44 NW9       30.29R
RICHLANDS*     FAIR      31   8  37 NW3       30.33S
WISE*          FAIR      32   7  34 N3        30.34S
ABINGDON*      FAIR      33  15  48 CALM      30.35S
$$

MDZ021>025-VAZ099-100-060100-
SOUTHERN MARYLAND AND THE DELMARVA PENINSULA

CITY           SKY/WX    TMP DP  RH WIND       PRES   REMARKS
PATUXENT RIVER PTCLDY    37  20  50 NW10      30.36R
BAY BRIDGE APT   N/A     37  21  52 NW12G18   30.36R
LEONARDTOWN    CLEAR     36  21  55 CALM      30.38R
DOVER          CLEAR     38  26  62 W8        30.32R
GEORGETOWN     PTCLDY    37  23  56 NW5       30.34R
EASTON         PTCLDY    36  25  64 NW6       30.38
CAMBRIDGE      CLEAR     37  23  56 NW9       30.35R
SALISBURY      CLEAR     37  23  56 NW7       30.33R
OCEAN CITY     CLEAR     37  23  56 NW8       30.33R
WALLOPS ISLAND FAIR      37  24  59 NW7       30.34R
ACCOMACK*      FAIR      36  27  69 NW7       30.34S
$$

NCZ012>017-030>032-060100-
NORTH CENTRAL AND EASTERN NORTH CAROLINA

CITY           SKY/WX    TMP DP  RH WIND       PRES   REMARKS
ROANOKE RAPIDS FAIR      36  25  64 CALM      30.37R
RALEIGH        PTCLDY    40  17  39 CALM      30.37R
ELIZABETH CITY CLEAR     40  28  62 N7        30.36R
AHOSKIE*       CLEAR     37  30  76 CALM      30.37R
EDENTON*       CLEAR     37  33  85 CALM      30.36R
CURRITUCK*     CLEAR     39  31  75 CALM      30.36R
KILL DEVIL HLS CLEAR     40  29  67 N7        30.35R
MANTEO         CLEAR     40  32  71 N10       30.36R
CAPE HATTERAS  CLEAR     42  29  59 N10G21    30.34R
TARBORO*       FAIR      37  30  75 CALM      30.38R
GOLDSBORO      PTCLDY    43  23  45 N5        30.36R
WASHINGTON     CLEAR     38  30  71 CALM      30.36R
GREENVILLE     PTCLDY    39  30  70 CALM      30.37R
NEW BERN       PTCLDY    41  28  60 NW6       30.37R
WILMINGTON     MOCLDY    43  29  57 N7        30.36R
$$

VAZ048-060100-
ELSEWHERE

CITY           SKY/WX    TMP DP  RH WIND       PRES   REMARKS
HARRISBURG PA  PTCLDY    36  19  50 W14       30.34R
BALTIMORE      CLEAR     35  20  54 W5        30.35R
ANNAPOLIS      CLEAR     38  21  50 NW8       30.36R
ANDREWS AFB    FAIR      36  18  47 NW13      30.35R
PHILADELPHIA   CLEAR     39  16  39 NW9       30.33R
HENDERSON NC   CLEAR     39  12  33 NW3       30.36R
GREENSBORO     PTCLDY    40  10  29 N5        30.34R
ROCKY MOUNT    CLEAR     36  28  73 CALM      30.37R
$$

VAZ100-060100-
MARINE

STATION/POSITION TIME  TEMP    WIND        PRES    WAVE   SWELL
                       AIR SEA DIR/SP/G            HT/PER HT/PER
                 (UTC) (F)     (DEG/KT/KT) (MB)    (FT/S) (FT/S)
15NM E FENWICK I 2350   42 45              1026.0R   6/ 8
GOOSES REEF MD   0000   40 40  330/ 14/ 16 1028.8R   2/ 3
POTOMAC MD       0000   40 41  320/ 14/ 17 1027.5R   2/ 3
STINGRAY PT      0000   41 43  340/ 14/ 17 1027.9R   2/ 3
JAMESTOWN VA     0000   41 44  330/  6/ 10   N/A
CHESAPEAKE LGHT  2300   41     340/ 19/ 20 1027.5R
CAPE HENRY BUOY  2328      46                N/A     5/11   2/11
1ST LANDING BUOY 0000      43                N/A     3/ 4
CAPE CHARLES BUO 2326      45                N/A     4/ 9   3/ 9
OFFSHORE WE BUOY 2321      48                N/A     8/ 9   5/ 9
64NM E OF VA BCH 2350   44 54  340/ 21/ 27 1026.4R  10/10   7/10
44100 DUCK FRF   2324      47                N/A     8/ 8   2/11
44056 DUCK FRF   2311      45                N/A     7/ 9   2/11
DIAMOND SHLS NC  2350      70   10/ 23/ 29 1026.6R   8/11   5/11
$$




USA.gov is the U.S. government's official web portal to all federal, state and local government web resources and services.